| time (UTC) | temp F | wind direction | speed knots | gust knots | rain 1hr in | rain 24hr in | rain mn in | humidity % | barometer mb |
| 20260506170525 | 72 | 270 | 1.7 | 3.5 | 0.00 | 0.15 | 0.15 | 91 | 1014.9 |
| 20260506165521 | 72 | 36 | 2.6 | 4.3 | 0.00 | 0.15 | 0.15 | 89 | 1014.7 |
| 20260506165513 | 71 | 29 | 0.0 | 1.7 | 0.00 | 0.15 | 0.15 | 89 | 1012.8 |
| 20260506164517 | 71 | 49 | 1.7 | 3.5 | 0.00 | 0.15 | 0.15 | 90 | 1014.7 |
| 20260506163531 | 70 | 14 | 1.7 | 3.5 | 0.00 | 0.15 | 0.15 | 92 | 1014.5 |
| 20260506162515 | 68 | 133 | 0.9 | 3.5 | 0.01 | 0.15 | 0.15 | 95 | 1014.5 |
| 20260506162513 | 67 | 350 | 0.9 | 2.6 | 0.00 | 0.15 | 0.15 | 94 | 1013.0 |
| 20260506161517 | 68 | 10 | 2.6 | 4.3 | 0.04 | 0.15 | 0.15 | 94 | 1014.5 |
| 20260506160519 | 68 | 29 | 3.5 | 5.2 | 0.12 | 0.15 | 0.15 | 95 | 1014.5 |
| 20260506155521 | 68 | 5 | 3.5 | 5.2 | 0.13 | 0.15 | 0.15 | 95 | 1014.5 |
| 20260506155513 | 67 | 18 | 2.6 | 4.3 | 0.13 | 0.15 | 0.15 | 96 | 1013.1 |
| 20260506154524 | 67 | 11 | 4.3 | 7.8 | 0.14 | 0.15 | 0.15 | 95 | 1014.3 |
| 20260506153526 | 68 | 346 | 2.6 | 7.0 | 0.14 | 0.15 | 0.15 | 97 | 1014.4 |
| 20260506152528 | 68 | 354 | 2.6 | 4.3 | 0.13 | 0.14 | 0.14 | 98 | 1014.5 |
| 20260506152513 | 67 | 333 | 1.7 | 3.5 | 0.09 | 0.11 | 0.11 | 98 | 1013.0 |
| 20260506151551 | 69 | 0 | 5.2 | 7.0 | 0.10 | 0.11 | 0.11 | 97 | 1014.5 |
| 20260506150533 | 73 | 267 | 2.6 | 16.5 | 0.02 | 0.03 | 0.03 | 99 | 1013.8 |
| 20260506145517 | 73 | 250 | 0.9 | 2.6 | 0.01 | 0.02 | 0.02 | 99 | 1013.8 |
| 20260506145513 | 72 | 0 | 0.0 | 0.0 | 0.01 | 0.01 | 0.01 | 99 | 1011.7 |
| 20260506144539 | 73 | 220 | 0.9 | 2.6 | 0.01 | 0.01 | 0.01 | 99 | 1013.8 |
| 20260506143521 | 73 | 225 | 0.9 | 2.6 | 0.01 | 0.01 | 0.01 | 99 | 1013.8 |
| 20260506142523 | 73 | 0.0 | 0.0 | 0.01 | 0.01 | 0.01 | 99 | 1013.6 | |
| 20260506142513 | 72 | 0 | 0.0 | 0.0 | 0.01 | 0.01 | 0.01 | 99 | 1011.4 |
| 20260506141520 | 73 | 0.0 | 0.0 | 0.01 | 0.01 | 0.01 | 99 | 1013.4 | |
| 20260506140515 | 72 | 0.0 | 0.0 | 0.01 | 0.01 | 0.01 | 99 | 1013.3 | |
| 20260506135530 | 72 | 0.0 | 0.0 | 0.01 | 0.01 | 0.01 | 99 | 1013.2 | |
| 20260506135513 | 72 | 93 | 0.9 | 2.6 | 0.00 | 0.00 | 0.00 | 99 | 1011.3 |
| 20260506134532 | 72 | 0.0 | 2.6 | 0.00 | 0.00 | 0.00 | 99 | 1012.8 | |
| 20260506133516 | 72 | 0.0 | 0.0 | 0.00 | 0.00 | 0.00 | 99 | 1012.1 | |
| 20260506132518 | 72 | 129 | 0.9 | 2.6 | 0.00 | 0.00 | 0.00 | 99 | 1011.9 |
| 20260506132513 | 71 | 135 | 0.0 | 2.6 | 0.00 | 0.00 | 0.00 | 99 | 1010.0 |
| 20260506131540 | 72 | 176 | 0.9 | 3.5 | 0.00 | 0.00 | 0.00 | 99 | 1011.9 |
| 20260506130522 | 72 | 113 | 0.9 | 1.7 | 0.00 | 0.00 | 0.00 | 99 | 1011.7 |
| 20260506125524 | 72 | 59 | 0.9 | 2.6 | 0.00 | 0.00 | 0.00 | 99 | 1011.7 |
| 20260506125513 | 71 | 141 | 0.9 | 2.6 | 0.00 | 0.00 | 0.00 | 99 | 1009.8 |
| 20260506124547 | 72 | 164 | 0.9 | 3.5 | 0.00 | 0.00 | 0.00 | 99 | 1011.7 |
| 20260506123549 | 72 | 160 | 1.7 | 4.3 | 0.00 | 0.00 | 0.00 | 99 | 1011.4 |
| 20260506122532 | 72 | 123 | 1.7 | 3.5 | 0.00 | 0.00 | 0.00 | 99 | 1011.4 |
| 20260506122513 | 71 | 143 | 1.7 | 5.2 | 0.00 | 0.00 | 0.00 | 99 | 1009.5 |
| 20260506121516 | 72 | 152 | 2.6 | 4.3 | 0.00 | 0.00 | 0.00 | 99 | 1011.4 |
| 20260506120518 | 72 | 138 | 0.9 | 3.5 | 0.00 | 0.00 | 0.00 | 99 | 1011.3 |
| 20260506115527 | 72 | 147 | 1.7 | 3.5 | 0.00 | 0.00 | 0.00 | 99 | 1011.3 |
| 20260506115513 | 72 | 166 | 1.7 | 3.5 | 0.00 | 0.00 | 0.00 | 99 | 1009.4 |
| 20260506114516 | 72 | 176 | 2.6 | 5.2 | 0.00 | 0.00 | 0.00 | 99 | 1011.4 |
| 20260506113518 | 72 | 148 | 1.7 | 4.3 | 0.00 | 0.00 | 0.00 | 99 | 1011.5 |
| 20260506112521 | 72 | 146 | 1.7 | 3.5 | 0.00 | 0.00 | 0.00 | 99 | 1011.6 |
| 20260506112513 | 72 | 157 | 1.7 | 3.5 | 0.00 | 0.00 | 0.00 | 99 | 1009.8 |
| 20260506111522 | 72 | 168 | 1.7 | 3.5 | 0.00 | 0.00 | 0.00 | 99 | 1011.7 |
| 20260506110525 | 72 | 158 | 0.0 | 2.6 | 0.00 | 0.00 | 0.00 | 99 | 1011.7 |
| 20260506105527 | 72 | 145 | 1.7 | 2.6 | 0.00 | 0.00 | 0.00 | 99 | 1011.7 |
| 20260506105513 | 72 | 179 | 0.9 | 4.3 | 0.00 | 0.00 | 0.00 | 99 | 1009.7 |
| 20260506104529 | 72 | 192 | 1.7 | 4.3 | 0.00 | 0.00 | 0.00 | 99 | 1011.7 |
| 20260506103532 | 72 | 192 | 2.6 | 4.3 | 0.00 | 0.00 | 0.00 | 99 | 1011.5 |
| 20260506102517 | 72 | 94 | 3.5 | 7.8 | 0.00 | 0.00 | 0.00 | 99 | 1011.4 |
| 20260506102513 | 72 | 217 | 2.6 | 5.2 | 0.00 | 0.00 | 0.00 | 99 | 1009.6 |
| 20260506101518 | 72 | 165 | 2.6 | 6.1 | 0.00 | 0.00 | 0.00 | 99 | 1011.5 |
| 20260506100520 | 72 | 193 | 2.6 | 5.2 | 0.00 | 0.00 | 0.00 | 99 | 1011.4 |
| 20260506095522 | 72 | 138 | 3.5 | 5.2 | 0.00 | 0.00 | 0.00 | 99 | 1011.3 |
| 20260506095513 | 72 | 181 | 2.6 | 5.2 | 0.00 | 0.00 | 0.00 | 99 | 1009.4 |
| 20260506094524 | 72 | 175 | 2.6 | 5.2 | 0.00 | 0.00 | 0.00 | 99 | 1011.4 |
| 20260506093521 | 72 | 146 | 2.6 | 5.2 | 0.00 | 0.00 | 0.00 | 99 | 1011.3 |
| 20260506092522 | 72 | 162 | 3.5 | 7.0 | 0.00 | 0.00 | 0.00 | 99 | 1011.4 |
| 20260506092513 | 72 | 183 | 1.7 | 4.3 | 0.00 | 0.00 | 0.00 | 99 | 1009.4 |
| 20260506091525 | 73 | 172 | 3.5 | 7.0 | 0.00 | 0.00 | 0.00 | 99 | 1011.4 |
| 20260506090521 | 73 | 135 | 5.2 | 7.8 | 0.00 | 0.00 | 0.00 | 99 | 1011.2 |
| 20260506085517 | 73 | 145 | 2.6 | 4.3 | 0.00 | 0.00 | 0.00 | 99 | 1011.0 |
| 20260506085513 | 72 | 140 | 2.6 | 4.3 | 0.00 | 0.00 | 0.00 | 99 | 1008.9 |
| 20260506084531 | 73 | 178 | 4.3 | 7.0 | 0.00 | 0.00 | 0.00 | 99 | 1011.0 |
| 20260506083536 | 73 | 150 | 4.3 | 7.8 | 0.00 | 0.00 | 0.00 | 98 | 1010.9 |
| 20260506082518 | 73 | 199 | 3.5 | 7.0 | 0.00 | 0.00 | 0.00 | 97 | 1010.8 |
| 20260506082513 | 73 | 146 | 3.5 | 6.1 | 0.00 | 0.00 | 0.00 | 97 | 1008.7 |
| 20260506081520 | 74 | 119 | 4.3 | 7.0 | 0.00 | 0.00 | 0.00 | 96 | 1010.8 |
| 20260506080522 | 74 | 148 | 2.6 | 6.1 | 0.00 | 0.00 | 0.00 | 96 | 1010.9 |
| 20260506073528 | 74 | 159 | 5.2 | 7.8 | 0.00 | 0.00 | 0.00 | 95 | 1011.1 |
| 20260506072532 | 74 | 172 | 4.3 | 7.8 | 0.00 | 0.00 | 0.00 | 95 | 1011.2 |
| 20260506072513 | 74 | 189 | 4.3 | 6.1 | 0.00 | 0.00 | 0.00 | 95 | 1009.0 |
| 20260506071534 | 74 | 174 | 5.2 | 11.3 | 0.00 | 0.00 | 0.00 | 95 | 1011.2 |
| 20260506070537 | 75 | 190 | 4.3 | 8.7 | 0.00 | 0.00 | 0.00 | 95 | 1011.3 |
| 20260506062513 | 74 | 144 | 1.7 | 4.3 | 0.00 | 0.00 | 0.00 | 95 | 1009.3 |
| 20260506061535 | 74 | 172 | 1.7 | 7.0 | 0.00 | 0.00 | 0.00 | 95 | 1011.5 |
| 20260506060524 | 74 | 152 | 3.5 | 7.0 | 0.00 | 0.00 | 0.00 | 95 | 1011.5 |
| 20260506050539 | 71 | 124 | 0.9 | 2.6 | 0.00 | 0.00 | 0.00 | 98 | 1011.4 |
| 20260506044543 | 71 | 0.0 | 0.0 | 0.00 | 0.00 | 0.00 | 96 | 1011.5 | |
| 20260506043525 | 71 | 0.0 | 0.0 | 0.00 | 0.00 | 0.00 | 96 | 1011.5 | |
| 20260506042527 | 71 | 0.0 | 0.0 | 0.00 | 0.00 | 0.00 | 96 | 1011.5 | |
| 20260506042513 | 71 | 0 | 0.0 | 0.0 | 0.00 | 0.00 | 0.00 | 95 | 1009.5 |
| 20260506041529 | 71 | 0.0 | 0.0 | 0.00 | 0.00 | 0.00 | 95 | 1011.4 | |
| 20260506040524 | 72 | 0.0 | 0.0 | 0.00 | 0.00 | 0.00 | 95 | 1011.2 | |
| 20260506035520 | 72 | 0.0 | 0.0 | 0.00 | 0.00 | 0.00 | 94 | 1011.2 | |
| 20260506035513 | 72 | 0 | 0.0 | 0.0 | 0.00 | 0.00 | 0.00 | 94 | 1009.2 |
| 20260506034517 | 72 | 0.0 | 0.0 | 0.00 | 0.00 | 0.00 | 94 | 1011.1 | |
| 20260506033519 | 73 | 0.0 | 0.0 | 0.00 | 0.00 | 0.00 | 93 | 1011.0 | |
| 20260506032520 | 73 | 0.0 | 0.0 | 0.00 | 0.00 | 0.00 | 92 | 1010.9 | |
| 20260506032513 | 72 | 0 | 0.0 | 0.0 | 0.00 | 0.00 | 0.00 | 91 | 1008.6 |
| 20260506031523 | 73 | 0.0 | 0.0 | 0.00 | 0.00 | 0.00 | 91 | 1010.7 | |
| 20260506030605 | 74 | 0.0 | 0.0 | 0.00 | 0.00 | 0.00 | 91 | 1010.8 | |
| 20260506025527 | 74 | 0.0 | 0.0 | 0.00 | 0.00 | 0.00 | 90 | 1010.6 | |
| 20260506025513 | 74 | 0 | 0.0 | 0.0 | 0.00 | 0.00 | 0.00 | 89 | 1008.3 |
| 20260506024529 | 75 | 0.0 | 0.0 | 0.00 | 0.00 | 0.00 | 89 | 1010.3 | |
| 20260506023533 | 75 | 0.0 | 0.0 | 0.00 | 0.00 | 0.00 | 88 | 1010.1 | |
| 20260506022536 | 76 | 0.0 | 0.0 | 0.00 | 0.00 | 0.00 | 87 | 1009.9 | |
| 20260506022513 | 76 | 0 | 0.0 | 0.0 | 0.00 | 0.00 | 0.00 | 85 | 1007.3 |
| 20260506021518 | 77 | 0.0 | 0.0 | 0.00 | 0.00 | 0.00 | 85 | 1009.7 | |
| 20260506020520 | 77 | 68 | 0.0 | 0.9 | 0.00 | 0.00 | 0.00 | 83 | 1009.6 |
| 20260506020513 | 77 | 180 | 0.0 | 1.7 | 0.00 | 0.00 | 0.00 | 82 | 1006.9 |
| 20260506015523 | 78 | 113 | 0.0 | 1.7 | 0.00 | 0.00 | 0.00 | 82 | 1009.4 |
| 20260506014524 | 79 | 119 | 0.9 | 2.6 | 0.00 | 0.00 | 0.00 | 81 | 1009.3 |
| 20260506014513 | 79 | 165 | 0.9 | 2.6 | 0.00 | 0.00 | 0.00 | 79 | 1006.5 |
| 20260506013527 | 80 | 155 | 1.7 | 3.5 | 0.00 | 0.00 | 0.00 | 79 | 1009.1 |
| 20260506013513 | 79 | 173 | 1.7 | 3.5 | 0.00 | 0.00 | 0.00 | 78 | 1006.3 |
| 20260506012523 | 80 | 162 | 2.6 | 3.5 | 0.00 | 0.00 | 0.00 | 78 | 1009.0 |
| 20260506012513 | 80 | 153 | 0.9 | 3.5 | 0.00 | 0.00 | 0.00 | 76 | 1006.0 |
| 20260506012013 | 80 | 147 | 1.7 | 3.5 | 0.00 | 0.00 | 0.00 | 76 | 1006.0 |
| 20260506011541 | 81 | 148 | 2.6 | 3.5 | 0.00 | 0.00 | 0.00 | 76 | 1008.9 |
| 20260506011513 | 81 | 176 | 2.6 | 5.2 | 0.00 | 0.00 | 0.00 | 75 | 1005.8 |
| 20260506010901 | 81 | 152 | 3.5 | 5.2 | 0.00 | 0.00 | 0.00 | 74 | 1005.7 |
| 20260506010533 | 82 | 152 | 3.5 | 6.1 | 0.00 | 0.00 | 0.00 | 75 | 1008.8 |
| 20260506005530 | 83 | 155 | 3.5 | 7.0 | 0.00 | 0.00 | 0.00 | 73 | 1008.9 |
| 20260506004532 | 84 | 182 | 2.6 | 6.1 | 0.00 | 0.00 | 0.00 | 70 | 1008.8 |
| 20260506003901 | 85 | 137 | 1.7 | 4.3 | 0.00 | 0.00 | 0.00 | 67 | 1005.5 |
| 20260506003536 | 86 | 138 | 1.7 | 4.3 | 0.00 | 0.00 | 0.00 | 67 | 1008.9 |
| 20260506002518 | 86 | 162 | 1.7 | 3.5 | 0.00 | 0.00 | 0.00 | 65 | 1008.9 |
| 20260506001520 | 86 | 147 | 2.6 | 4.3 | 0.00 | 0.00 | 0.00 | 66 | 1008.9 |
| 20260506000901 | 85 | 191 | 2.6 | 2.6 | 0.00 | 0.00 | 0.00 | 66 | 1005.5 |
| 20260506000522 | 86 | 191 | 2.6 | 3.5 | 0.00 | 0.00 | 0.00 | 66 | 1008.9 |
| 20260505235524 | 86 | 200 | 1.7 | 5.2 | 0.00 | 0.00 | 0.00 | 65 | 1008.9 |
| 20260505234546 | 86 | 175 | 2.6 | 6.1 | 0.00 | 0.00 | 0.00 | 65 | 1009.0 |
| 20260505233901 | 86 | 170 | 2.6 | 5.2 | 0.00 | 0.00 | 0.00 | 64 | 1005.3 |
| 20260505233548 | 86 | 170 | 2.6 | 6.1 | 0.00 | 0.00 | 0.00 | 65 | 1008.8 |
| 20260505232530 | 86 | 141 | 3.5 | 7.0 | 0.00 | 0.00 | 0.00 | 64 | 1008.8 |
| 20260505231612 | 86 | 154 | 3.5 | 5.2 | 0.00 | 0.00 | 0.00 | 66 | 1008.8 |
| 20260505230901 | 85 | 155 | 3.5 | 4.3 | 0.00 | 0.00 | 0.00 | 66 | 1005.4 |
| 20260505230516 | 85 | 156 | 3.5 | 5.2 | 0.00 | 0.00 | 0.00 | 66 | 1008.8 |
| 20260505225518 | 85 | 189 | 4.3 | 6.1 | 0.00 | 0.00 | 0.00 | 67 | 1008.8 |
| 20260505224520 | 85 | 150 | 4.3 | 7.0 | 0.00 | 0.00 | 0.00 | 65 | 1008.8 |
| 20260505223901 | 86 | 134 | 3.5 | 7.0 | 0.00 | 0.00 | 0.00 | 64 | 1005.4 |
| 20260505223516 | 86 | 134 | 3.5 | 7.8 | 0.00 | 0.00 | 0.00 | 64 | 1008.9 |
| 20260505222524 | 86 | 170 | 2.6 | 5.2 | 0.00 | 0.00 | 0.00 | 64 | 1008.9 |
| 20260505221526 | 87 | 186 | 3.5 | 5.2 | 0.00 | 0.00 | 0.00 | 63 | 1008.9 |
| 20260505220901 | 86 | 187 | 2.6 | 3.5 | 0.00 | 0.00 | 0.00 | 63 | 1005.4 |
| 20260505220529 | 86 | 188 | 3.5 | 4.3 | 0.00 | 0.00 | 0.00 | 63 | 1008.9 |
| 20260505215531 | 87 | 207 | 3.5 | 4.3 | 0.00 | 0.00 | 0.00 | 62 | 1009.0 |
| 20260505214553 | 87 | 160 | 4.3 | 6.1 | 0.00 | 0.00 | 0.00 | 62 | 1009.0 |
| 20260505213901 | 87 | 182 | 4.3 | 7.8 | 0.00 | 0.00 | 0.00 | 61 | 1005.6 |
| 20260505213517 | 88 | 183 | 4.3 | 8.7 | 0.00 | 0.00 | 0.00 | 62 | 1009.1 |
| 20260505212558 | 87 | 147 | 2.6 | 5.2 | 0.00 | 0.00 | 0.00 | 63 | 1009.3 |
| 20260505211521 | 88 | 191 | 4.3 | 7.8 | 0.00 | 0.00 | 0.00 | 61 | 1009.3 |
| 20260505210901 | 88 | 213 | 2.6 | 5.2 | 0.00 | 0.00 | 0.00 | 60 | 1005.8 |
| 20260505210522 | 89 | 213 | 3.5 | 5.2 | 0.00 | 0.00 | 0.00 | 60 | 1009.6 |
| 20260505205545 | 88 | 176 | 5.2 | 7.0 | 0.00 | 0.00 | 0.00 | 61 | 1009.6 |
| 20260505204526 | 89 | 208 | 3.5 | 6.1 | 0.00 | 0.00 | 0.00 | 60 | 1009.6 |
| 20260505203901 | 87 | 137 | 5.2 | 8.7 | 0.00 | 0.00 | 0.00 | 61 | 1006.1 |
| 20260505203529 | 88 | 137 | 6.1 | 8.7 | 0.00 | 0.00 | 0.00 | 61 | 1009.7 |
| 20260505202525 | 87 | 151 | 4.3 | 8.7 | 0.00 | 0.00 | 0.00 | 62 | 1009.8 |
| 20260505201541 | 87 | 121 | 5.2 | 9.6 | 0.00 | 0.00 | 0.00 | 63 | 1009.9 |
| 20260505200901 | 87 | 116 | 3.5 | 7.0 | 0.00 | 0.00 | 0.00 | 62 | 1006.5 |
| 20260505200517 | 88 | 116 | 4.3 | 7.0 | 0.00 | 0.00 | 0.00 | 63 | 1010.1 |
| 20260505195519 | 87 | 146 | 5.2 | 7.8 | 0.00 | 0.00 | 0.00 | 64 | 1010.3 |
| 20260505194521 | 86 | 156 | 4.3 | 6.1 | 0.00 | 0.00 | 0.00 | 63 | 1010.3 |
| 20260505193901 | 86 | 171 | 4.3 | 6.1 | 0.00 | 0.00 | 0.00 | 63 | 1007.0 |
| 20260505193543 | 87 | 171 | 4.3 | 7.0 | 0.00 | 0.00 | 0.00 | 64 | 1010.5 |
| 20260505192525 | 86 | 175 | 4.3 | 7.0 | 0.00 | 0.00 | 0.00 | 65 | 1010.5 |
| 20260505191528 | 86 | 148 | 3.5 | 7.0 | 0.00 | 0.00 | 0.00 | 65 | 1010.6 |
| 20260505190901 | 84 | 178 | 4.3 | 6.1 | 0.00 | 0.00 | 0.00 | 65 | 1007.5 |
| 20260505190529 | 85 | 178 | 4.3 | 7.0 | 0.00 | 0.00 | 0.00 | 65 | 1010.8 |
| 20260505185551 | 85 | 220 | 3.5 | 7.8 | 0.00 | 0.00 | 0.00 | 65 | 1011.1 |
| 20260505184515 | 87 | 238 | 5.2 | 7.8 | 0.00 | 0.00 | 0.00 | 63 | 1011.3 |
| 20260505183901 | 85 | 143 | 3.5 | 5.2 | 0.00 | 0.00 | 0.00 | 65 | 1008.0 |
| 20260505183517 | 85 | 144 | 4.3 | 6.1 | 0.00 | 0.00 | 0.00 | 66 | 1011.4 |
| 20260505182539 | 85 | 143 | 4.3 | 7.0 | 0.00 | 0.00 | 0.00 | 67 | 1011.4 |
| 20260505181521 | 84 | 108 | 2.6 | 4.3 | 0.00 | 0.00 | 0.00 | 68 | 1011.5 |
| 20260505180901 | 83 | 132 | 2.6 | 5.2 | 0.00 | 0.00 | 0.00 | 68 | 1008.4 |
| 20260505180523 | 84 | 132 | 3.5 | 6.1 | 0.00 | 0.00 | 0.00 | 69 | 1011.7 |
| 20260505175526 | 83 | 182 | 3.5 | 6.1 | 0.00 | 0.00 | 0.00 | 68 | 1011.7 |
| 20260505174522 | 82 | 152 | 3.5 | 5.2 | 0.00 | 0.00 | 0.00 | 70 | 1011.8 |
| 20260505173901 | 82 | 205 | 2.6 | 5.2 | 0.00 | 0.00 | 0.00 | 70 | 1009.0 |
| 20260505173518 | 82 | 205 | 3.5 | 5.2 | 0.00 | 0.00 | 0.00 | 70 | 1012.0 |
| 20260505172532 | 81 | 198 | 5.2 | 8.7 | 0.00 | 0.00 | 0.00 | 72 | 1012.0 |
| 20260505171516 | 80 | 209 | 3.5 | 6.1 | 0.00 | 0.00 | 0.00 | 74 | 1012.0 |